SCP
0 0 0 0 0 0 -0 -0 0 0 0 0 0 0 0 0 0 0 0 0 0 0 0 0 0 0 0 0 0 0 0 0 0 0 0 0 0 0 0 0 0 0 0 0
0 0 0 0 0 0 -0 -0 -0 0 0 0 0 0 0 0 0 0 0 0 0 0 0 0 0 0 0 0 0 0 0 0 0 0 0 0 0 0 0 0 0 0 0 0
0 0 0 0 0 0 0 0 0 0 0 0 0 0 0 0 0 0 0 0 0 0 0 0 0 0 -0 -0 0 0 0 0 0 0 0 0 0 0 0 0 0 0 0 0
0 0 0 0 0 0 0 0 0 0 0 0 0 0 0 0 0 0 0 -0 0 0 0 0 0 -0 0 -0 -0 0 0 0 0 0 0 0 0 0 0 0 0 0 0 0
0 0 0 0 0 0 0 0 0 0 0 0 0 0 0 0 0 0 0 0 0 0 0 0 0 0 0 -0 -0 0 0 0 0 0 0 0 0 0 0 0 0 0 0 0
0 0 0 0 0 0 0 0 0 0 0 0 0 0 0 0 0 0 0 0 0 0 0 0 0 0 0 0 0 0 0 0 0 0 0 0 0 0 0 0 0 0 0 0
0 0 0 0 0 0 0 0 0 0 0 0 0 0 0 0 0 0 0 0 0 0 0 0 0 0 0 0 0 0 0 0 0 0 0 0 0 0 0 0 0 0 0 0
0 0 0 0 0 0 0 0 0 0 0 0 0 0 0 0 0 0 0 0 0 0 0 -0 0 0 0 0 0 0 0 0 -0 0 0 0 0 0 0 0 0 0 0 0
0 0 0 0 0 0 0 0 0 0 0 0 0 0 0 0 0 0 0 0 0 0 0 0 0 0 0 0 0 -0 0 0 0 0 0 0 0 0 0 0 0 0 0 0
0 0 0 0 0 0 0 0 0 0 0 0 0 0 0 0 0 0 0 0 0 0 0 0 0 0 -0 0 0 0 0 0 0 0 0 0 0 0 0 0 0 0 0 0
0 0 0 0 0 0 0 0 0 0 0 0 0 0 0 0 0 0 0 0 -0 0 0 0 0 0 0 0 0 0 0 0 0 0 0 0 0 0 0 0 0 0 0 0
0 0 0 0 0 0 0 0 0 0 0 0 0 0 0 0 0 0 0 0 0 0 0 0 -0 -0 -0 0 0 0 0 0 0 0 0 0 0 0 0 0 0 0 0 0
0 0 0 0 0 0 0 0 0 0 0 0 0 -0 -0 0 -0 0 0 0 0 0 0 0 -0 0 0 0 0 0 0 -0 0 0 0 0 0 0 0 0 0 0 0 0
0 0 0 0 0 0 0 0 0 0 0 0 0 0 0 0 0 0 -0 -0 0 0 0 0 -0 -0 -0 0 0 -0 0 -0 -0 -0 0 0 0 0 0 0 0 0 0 0
0 0 0 0 -0 0 0 0 0 0 0 0 0 -0 -0 -0 -0 -0 -0 -0 0 0 0 0 0 0 0 0 -0 -0 0 0 -0 -0 0 -0 0 0 0 0 0 0 0 0
0 0 0 -0 -0 0 0 0 0 0 0 0 0 0 0 0 0 -0 0 0 0 0 0 0 -0 0 0 -0 -0 0 0 0 -0 0 0 -0 0 0 0 0 0 0 0 0
0 0 0 -0 0 0 0 0 0 0 0 -0 -0 -0 0 0 0 0 0 0 0 0 0 0 0 0 0 -0 0 0 0 0 0 0 0 0 0 0 0 0 0 0 0 0
0 -0 -0 -0 0 0 0 0 -0 0 0 0 0 -0 -0 0 0 0 0 -0 -0 -0 -0 0 0 0 0 -0 -0 0 0 0 -0 0 0 0 0 0 0 0 0 0 0 0
-0 -0 -0 -0 0 0 0 0 0 0 0 0 0 0 -0 0 0 0 0 0 -0 -0 -0 -0 -0 0 -0 0 0 0 0 0 0 0 0 0 0 -0 0 0 0 0 0 0
-0 0 0 0 0 0 0 0 0 0 0 0 0 0 0 0 0 0 0 0 -0 0 -0 -0 -0 -0 -0 -0 -0 0 0 0 0 0 0 0 0 0 0 0 0 0 0 0
-0 -0 0 0 0 0 0 0 0 0 0 0 0 0 -0 0 0 0 0 0 -0 0 0 0 0 -0 -0 -0 -0 0 0 0 0 0 0 0 0 0 0 0 0 0 -0 0
0 0 0 0 0 0 0 0 0 0 0 0 0 0 -0 -0 0 0 0 0 0 0 0 0 0 0 -0 -0 -0 0 0 0 -0 -0 -0 -0 0 0 0 0 0 0 -0 0
0 0 0 0 0 0 0 0 0 0 0 0 0 0 0 -0 0 0 0 0 0 0 0 -0 -0 -0 0 0 0 0 0 0 0 0 -0 -0 0 0 -0 -0 -0 -0 0 0
0 0 0 -0 0 0 0 0 0 0 0 0 0 0 0 0 0 0 0 0 0 0 0 -0 0 -0 0 -0 0 0 0 0 0 0 0 0 -0 -0 -0 -0 0 0 0 0
0 0 0 0 0 0 0 0 0 0 0 0 0 0 0 0 0 0 0 0 0 0 0 -0 -0 -0 -0 -0 0 0 0 0 0 0 -0 -0 -0 -0 -0 0 0 0 0 0
0 0 0 0 0 0 0 0 0 0 0 0 0 0 0 0 0 0 0 0 0 0 0 -0 -0 0 0 0 0 0 0 0 0 0 -0 -0 -0 -0 -0 0 0 0 0 0
0 0 0 0 -0 -0 0 0 0 0 0 0 0 0 0 0 0 0 0 0 0 0 0 -0 -0 0 -0 0 -0 0 0 0 0 0 0 0 0 0 0 0 0 0 0 0
Wind_Speed_500mb
48 50 52 56 60 62 58 27 9 40 49 12 4 2 8 30 34 27 14 9 11 10 21 12 14 17 11 49 27 12 12 11 10 22 8 17 16 18 14 10 10 9 9 13
46 48 49 50 52 56 58 35 17 15 45 4 7 15 17 15 19 17 11 8 9 7 7 13 6 18 27 41 22 11 9 4 3 16 12 5 10 11 13 8 7 19 11 12
48 48 46 47 47 46 45 19 7 11 27 13 7 11 10 10 31 23 20 18 15 8 17 11 15 29 20 48 39 50 34 13 18 26 17 10 9 14 28 23 10 18 32 21
46 48 48 47 45 42 37 7 9 9 7 21 29 25 12 28 22 14 26 13 16 17 17 25 26 12 27 27 23 29 13 15 16 18 19 16 13 12 14 21 29 21 23 33
50 49 49 48 44 42 22 12 13 16 23 36 21 9 10 35 33 30 29 22 25 21 14 16 30 17 8 9 11 14 12 13 15 36 28 25 31 15 17 28 23 24 27 44
51 51 48 46 39 27 12 14 32 27 16 11 9 12 27 33 35 29 40 34 24 24 24 32 57 57 49 23 10 8 6 8 12 25 31 24 20 43 37 29 32 20 30 23
51 49 47 42 35 26 30 34 35 20 24 20 18 23 41 33 43 44 42 46 18 28 53 57 42 35 35 36 32 33 23 22 13 10 7 27 25 15 29 43 47 40 11 13
51 51 49 44 42 38 38 37 39 25 21 36 33 41 37 40 52 46 45 45 41 46 41 10 13 11 11 29 39 38 39 26 13 12 24 10 15 28 33 29 30 28 26 23
52 51 51 49 49 44 48 49 44 46 28 33 46 42 38 19 13 29 49 29 50 34 5 4 8 14 20 13 11 42 43 43 23 14 14 24 26 34 40 5 14 14 21 26
56 57 56 58 53 49 50 57 54 55 34 70 44 34 27 27 22 12 32 12 14 31 6 6 10 20 16 15 11 5 9 25 42 34 14 14 13 12 34 26 17 21 43 41
58 58 62 59 50 47 48 61 52 57 54 81 78 80 68 51 29 15 26 26 19 5 6 7 9 7 3 11 13 10 11 10 15 24 22 45 23 14 25 14 34 39 46 41
58 62 64 58 49 48 47 66 56 53 70 66 81 85 67 63 70 60 45 32 21 9 3 5 5 10 6 11 7 4 7 4 5 3 9 13 15 28 36 42 55 43 46 40
57 63 65 58 54 54 48 60 52 47 57 70 77 67 71 67 77 83 58 58 47 36 52 20 8 16 7 3 7 4 5 8 7 12 17 23 19 8 40 47 53 50 40 37
58 60 61 56 51 49 46 48 41 38 26 14 28 24 41 48 47 57 73 79 66 57 47 20 8 8 13 6 7 4 10 7 6 7 35 40 36 20 13 38 50 45 37 35
57 59 57 56 52 51 40 38 38 34 35 11 35 60 70 51 62 60 53 64 74 50 19 10 10 10 10 14 7 18 21 14 9 8 25 17 25 31 14 30 56 45 41 40
57 58 57 55 45 39 36 13 12 14 26 13 7 29 69 40 38 48 45 68 72 46 16 10 14 30 26 7 7 15 38 46 52 27 30 26 36 24 23 14 24 35 41 45
57 59 57 51 42 36 24 15 22 15 5 9 11 13 15 10 5 12 35 37 36 44 33 21 22 29 26 8 25 17 25 38 47 54 53 30 29 17 7 8 23 34 43 43
62 60 56 53 41 31 23 10 13 31 17 9 5 9 14 8 9 5 9 10 29 26 20 10 9 9 12 11 20 34 52 63 68 68 54 47 32 26 36 26 47 48 48 44
60 52 45 35 7 8 15 29 35 25 25 8 8 6 8 6 6 7 6 6 6 15 8 6 11 7 14 23 30 46 60 45 43 43 33 45 57 61 54 60 50 47 49 40
54 31 14 10 4 24 63 8 6 16 17 16 9 11 8 21 15 7 4 9 3 4 10 12 9 18 66 66 75 60 54 46 49 42 41 43 44 39 31 49 46 52 49 43
29 14 9 30 56 17 5 6 6 9 6 13 16 24 12 18 5 7 12 5 4 5 6 9 6 8 21 68 81 86 70 64 57 46 39 18 14 22 32 38 51 53 45 45
39 37 43 26 11 6 3 5 3 8 6 6 8 13 27 21 15 6 5 5 3 9 11 7 6 8 17 23 17 45 65 76 77 61 43 38 26 16 34 42 56 50 45 51
17 4 6 5 6 6 5 5 5 6 8 11 10 9 13 12 7 1 1 7 10 11 6 6 8 9 43 52 41 31 41 44 72 67 61 60 41 36 45 58 55 53 52 41
6 4 9 6 8 8 7 7 11 16 17 43 41 13 9 9 4 4 6 8 3 6 7 9 2 39 56 59 50 52 51 25 42 39 33 33 44 56 49 46 49 50 46 35
6 6 8 10 23 23 32 22 26 30 36 31 22 18 12 5 6 4 7 6 8 7 5 14 49 66 67 44 45 45 20 40 37 31 44 49 53 45 52 61 58 44 25 26
8 13 9 25 19 22 20 33 38 44 37 44 11 6 5 5 5 7 5 11 6 8 10 54 69 33 19 20 29 57 65 65 65 62 64 67 69 72 65 51 40 34 30 25
9 13 22 40 46 35 37 41 45 49 23 5 6 6 5 6 6 5 7 7 8 35 73 69 34 23 38 35 65 66 75 74 71 69 68 70 64 58 46 41 35 27 23 19
Wind_Direction_500mb
343 346 347 348 349 347 351 3 339 337 350 348 341 235 320 329 316 342 2 353 2 24 337 293 299 282 273 326 291 232 186 159 216 216 224 181 180 182 150 140 231 221 166 260
340 343 344 346 350 355 354 336 296 348 335 318 341 321 339 312 12 351 350 308 16 334 291 314 318 304 326 330 342 296 201 204 43 326 337 318 199 186 174 128 103 212 181 252
338 339 342 342 345 350 351 331 330 318 319 2 26 2 293 333 329 314 341 288 305 353 306 232 285 306 308 343 330 318 259 186 176 229 227 184 200 199 202 190 183 219 229 240
338 336 338 338 338 343 349 313 278 14 297 324 330 315 290 297 305 261 331 308 326 313 295 305 286 269 311 306 327 344 21 226 193 212 193 213 200 198 205 202 226 200 228 231
334 333 332 333 334 335 348 310 341 333 296 289 265 247 258 284 297 295 294 291 319 313 278 264 297 312 285 250 334 351 4 303 260 236 222 212 243 247 240 242 242 260 248 260
329 329 328 328 330 334 326 289 295 318 258 255 295 257 270 279 299 290 304 307 298 295 291 307 299 278 262 234 199 284 305 291 332 255 234 228 241 237 242 251 252 233 245 246
329 327 326 323 320 313 293 288 290 275 274 277 260 283 281 289 291 288 299 304 299 297 311 313 302 270 230 222 235 214 247 235 275 268 175 220 242 218 234 240 241 240 205 165
327 327 322 321 317 309 288 280 273 265 271 266 273 269 275 286 288 287 295 293 286 310 306 301 286 281 264 238 229 224 217 222 216 256 218 272 285 223 225 232 244 229 212 153
325 322 318 315 309 300 288 279 268 262 278 268 277 274 274 277 288 291 281 265 301 298 289 272 243 262 265 253 294 221 217 214 219 222 212 202 246 234 251 67 267 211 154 157
323 321 319 316 310 302 290 281 273 257 252 269 268 254 263 262 253 269 282 280 311 310 230 238 232 258 254 245 228 244 271 212 222 218 261 278 217 224 203 203 246 177 152 155
323 321 321 315 310 305 297 287 274 259 254 263 259 260 261 264 250 258 281 315 292 253 216 207 227 234 325 299 256 216 221 237 231 215 224 246 191 162 172 198 153 149 146 143
323 325 325 322 315 309 301 290 287 278 257 264 272 269 266 257 255 249 251 243 244 280 357 292 308 312 273 244 260 75 261 264 273 251 261 264 191 186 200 164 155 164 159 151
324 329 328 324 316 312 302 296 292 275 267 263 263 261 276 276 262 252 245 252 248 244 249 262 239 237 241 255 241 230 269 204 240 352 1 305 340 253 210 183 175 166 165 160
325 329 331 324 320 315 305 298 295 270 265 264 276 285 271 277 265 252 243 249 253 253 256 241 245 262 208 228 246 220 239 209 277 254 275 283 296 319 309 191 173 171 170 166
324 324 327 327 321 321 312 301 290 265 247 287 293 292 292 276 247 246 253 245 245 240 232 221 237 225 221 247 239 248 210 214 217 270 282 301 308 328 288 269 192 188 180 163
327 325 323 326 326 324 331 327 22 338 252 281 292 295 296 304 268 254 250 244 237 217 198 209 213 227 209 231 230 221 223 229 239 237 254 276 293 300 282 158 153 181 179 160
326 326 321 313 313 304 295 274 291 308 304 271 299 295 281 312 293 226 238 241 227 223 225 226 235 246 222 238 247 228 233 255 261 253 269 266 288 272 206 191 154 149 155 159
324 322 317 309 299 292 295 315 295 250 267 247 267 270 290 246 254 277 230 249 211 215 214 233 226 212 222 256 239 248 250 253 255 258 250 248 249 248 238 265 164 157 155 157
330 327 315 306 263 280 316 304 288 275 238 258 238 251 277 264 283 268 260 248 216 190 210 227 181 198 227 247 251 241 251 244 249 269 269 246 239 242 246 225 180 173 163 163
336 341 331 298 261 301 309 291 193 202 217 228 251 233 266 286 285 269 272 211 226 222 231 167 212 246 246 248 246 245 256 261 250 252 267 261 247 233 219 192 200 188 169 166
350 332 280 290 309 318 283 266 222 219 256 229 242 236 241 260 191 230 219 230 233 254 249 182 241 266 247 256 245 244 240 239 251 237 251 273 324 202 175 185 184 169 167 172
313 302 296 306 322 294 16 265 260 236 273 265 281 297 292 258 248 185 238 214 215 248 163 233 244 261 327 355 295 259 248 238 237 241 243 249 279 251 168 165 163 160 163 170
338 313 282 286 277 330 237 285 225 253 270 278 295 318 288 291 241 11 347 254 238 308 237 239 232 323 347 335 322 321 304 247 234 235 243 255 271 189 166 157 154 156 160 164
312 303 289 170 262 239 221 234 270 252 261 284 293 267 256 259 289 203 229 241 247 248 239 244 266 336 325 319 311 317 329 209 209 212 203 215 152 145 152 157 157 168 161 156
271 256 244 239 244 277 295 291 315 298 309 296 291 263 245 263 258 242 275 259 253 248 299 300 301 300 298 294 308 322 213 156 153 167 159 151 154 157 157 159 158 155 152 157
243 233 260 268 283 282 300 303 308 326 317 322 271 275 292 280 282 262 229 308 308 296 293 300 301 294 284 311 90 106 127 136 136 143 145 147 145 141 138 139 142 143 150 152
243 249 255 271 280 275 289 312 296 302 311 284 298 293 275 302 267 318 357 329 298 307 310 315 357 75 79 90 100 98 112 121 126 130 133 130 128 129 130 127 125 131 129 128
Wind_Speed_850mb
48 50 52 56 60 62 58 27 9 40 49 12 4 2 8 30 34 27 14 9 11 10 21 12 14 17 11 49 27 12 12 11 10 22 8 17 16 18 14 10 10 9 9 13
46 48 49 50 52 56 58 35 17 15 45 4 7 15 17 15 19 17 11 8 9 7 7 13 6 18 27 41 22 11 9 4 3 16 12 5 10 11 13 8 7 19 11 12
48 48 46 47 47 46 45 19 7 11 27 13 7 11 10 10 31 23 20 18 15 8 17 11 15 29 20 48 39 50 34 13 18 26 17 10 9 14 28 23 10 18 32 21
46 48 48 47 45 42 37 7 9 9 7 21 29 25 12 28 22 14 26 13 16 17 17 25 26 12 27 27 23 29 13 15 16 18 19 16 13 12 14 21 29 21 23 33
50 49 49 48 44 42 22 12 13 16 23 36 21 9 10 35 33 30 29 22 25 21 14 16 30 17 8 9 11 14 12 13 15 36 28 25 31 15 17 28 23 24 27 44
51 51 48 46 39 27 12 14 32 27 16 11 9 12 27 33 35 29 40 34 24 24 24 32 57 57 49 23 10 8 6 8 12 25 31 24 20 43 37 29 32 20 30 23
51 49 47 42 35 26 30 34 35 20 24 20 18 23 41 33 43 44 42 46 18 28 53 57 42 35 35 36 32 33 23 22 13 10 7 27 25 15 29 43 47 40 11 13
51 51 49 44 42 38 38 37 39 25 21 36 33 41 37 40 52 46 45 45 41 46 41 10 13 11 11 29 39 38 39 26 13 12 24 10 15 28 33 29 30 28 26 23
52 51 51 49 49 44 48 49 44 46 28 33 46 42 38 19 13 29 49 29 50 34 5 4 8 14 20 13 11 42 43 43 23 14 14 24 26 34 40 5 14 14 21 26
56 57 56 58 53 49 50 57 54 55 34 70 44 34 27 27 22 12 32 12 14 31 6 6 10 20 16 15 11 5 9 25 42 34 14 14 13 12 34 26 17 21 43 41
58 58 62 59 50 47 48 61 52 57 54 81 78 80 68 51 29 15 26 26 19 5 6 7 9 7 3 11 13 10 11 10 15 24 22 45 23 14 25 14 34 39 46 41
58 62 64 58 49 48 47 66 56 53 70 66 81 85 67 63 70 60 45 32 21 9 3 5 5 10 6 11 7 4 7 4 5 3 9 13 15 28 36 42 55 43 46 40
57 63 65 58 54 54 48 60 52 47 57 70 77 67 71 67 77 83 58 58 47 36 52 20 8 16 7 3 7 4 5 8 7 12 17 23 19 8 40 47 53 50 40 37
58 60 61 56 51 49 46 48 41 38 26 14 28 24 41 48 47 57 73 79 66 57 47 20 8 8 13 6 7 4 10 7 6 7 35 40 36 20 13 38 50 45 37 35
57 59 57 56 52 51 40 38 38 34 35 11 35 60 70 51 62 60 53 64 74 50 19 10 10 10 10 14 7 18 21 14 9 8 25 17 25 31 14 30 56 45 41 40
57 58 57 55 45 39 36 13 12 14 26 13 7 29 69 40 38 48 45 68 72 46 16 10 14 30 26 7 7 15 38 46 52 27 30 26 36 24 23 14 24 35 41 45
57 59 57 51 42 36 24 15 22 15 5 9 11 13 15 10 5 12 35 37 36 44 33 21 22 29 26 8 25 17 25 38 47 54 53 30 29 17 7 8 23 34 43 43
62 60 56 53 41 31 23 10 13 31 17 9 5 9 14 8 9 5 9 10 29 26 20 10 9 9 12 11 20 34 52 63 68 68 54 47 32 26 36 26 47 48 48 44
60 52 45 35 7 8 15 29 35 25 25 8 8 6 8 6 6 7 6 6 6 15 8 6 11 7 14 23 30 46 60 45 43 43 33 45 57 61 54 60 50 47 49 40
54 31 14 10 4 24 63 8 6 16 17 16 9 11 8 21 15 7 4 9 3 4 10 12 9 18 66 66 75 60 54 46 49 42 41 43 44 39 31 49 46 52 49 43
29 14 9 30 56 17 5 6 6 9 6 13 16 24 12 18 5 7 12 5 4 5 6 9 6 8 21 68 81 86 70 64 57 46 39 18 14 22 32 38 51 53 45 45
39 37 43 26 11 6 3 5 3 8 6 6 8 13 27 21 15 6 5 5 3 9 11 7 6 8 17 23 17 45 65 76 77 61 43 38 26 16 34 42 56 50 45 51
17 4 6 5 6 6 5 5 5 6 8 11 10 9 13 12 7 1 1 7 10 11 6 6 8 9 43 52 41 31 41 44 72 67 61 60 41 36 45 58 55 53 52 41
6 4 9 6 8 8 7 7 11 16 17 43 41 13 9 9 4 4 6 8 3 6 7 9 2 39 56 59 50 52 51 25 42 39 33 33 44 56 49 46 49 50 46 35
6 6 8 10 23 23 32 22 26 30 36 31 22 18 12 5 6 4 7 6 8 7 5 14 49 66 67 44 45 45 20 40 37 31 44 49 53 45 52 61 58 44 25 26
8 13 9 25 19 22 20 33 38 44 37 44 11 6 5 5 5 7 5 11 6 8 10 54 69 33 19 20 29 57 65 65 65 62 64 67 69 72 65 51 40 34 30 25
9 13 22 40 46 35 37 41 45 49 23 5 6 6 5 6 6 5 7 7 8 35 73 69 34 23 38 35 65 66 75 74 71 69 68 70 64 58 46 41 35 27 23 19
Wind_Direction_850mb
343 346 347 348 349 347 351 3 339 337 350 348 341 235 320 329 316 342 2 353 2 24 337 293 299 282 273 326 291 232 186 159 216 216 224 181 180 182 150 140 231 221 166 260
340 343 344 346 350 355 354 336 296 348 335 318 341 321 339 312 12 351 350 308 16 334 291 314 318 304 326 330 342 296 201 204 43 326 337 318 199 186 174 128 103 212 181 252
338 339 342 342 345 350 351 331 330 318 319 2 26 2 293 333 329 314 341 288 305 353 306 232 285 306 308 343 330 318 259 186 176 229 227 184 200 199 202 190 183 219 229 240
338 336 338 338 338 343 349 313 278 14 297 324 330 315 290 297 305 261 331 308 326 313 295 305 286 269 311 306 327 344 21 226 193 212 193 213 200 198 205 202 226 200 228 231
334 333 332 333 334 335 348 310 341 333 296 289 265 247 258 284 297 295 294 291 319 313 278 264 297 312 285 250 334 351 4 303 260 236 222 212 243 247 240 242 242 260 248 260
329 329 328 328 330 334 326 289 295 318 258 255 295 257 270 279 299 290 304 307 298 295 291 307 299 278 262 234 199 284 305 291 332 255 234 228 241 237 242 251 252 233 245 246
329 327 326 323 320 313 293 288 290 275 274 277 260 283 281 289 291 288 299 304 299 297 311 313 302 270 230 222 235 214 247 235 275 268 175 220 242 218 234 240 241 240 205 165
327 327 322 321 317 309 288 280 273 265 271 266 273 269 275 286 288 287 295 293 286 310 306 301 286 281 264 238 229 224 217 222 216 256 218 272 285 223 225 232 244 229 212 153
325 322 318 315 309 300 288 279 268 262 278 268 277 274 274 277 288 291 281 265 301 298 289 272 243 262 265 253 294 221 217 214 219 222 212 202 246 234 251 67 267 211 154 157
323 321 319 316 310 302 290 281 273 257 252 269 268 254 263 262 253 269 282 280 311 310 230 238 232 258 254 245 228 244 271 212 222 218 261 278 217 224 203 203 246 177 152 155
323 321 321 315 310 305 297 287 274 259 254 263 259 260 261 264 250 258 281 315 292 253 216 207 227 234 325 299 256 216 221 237 231 215 224 246 191 162 172 198 153 149 146 143
323 325 325 322 315 309 301 290 287 278 257 264 272 269 266 257 255 249 251 243 244 280 357 292 308 312 273 244 260 75 261 264 273 251 261 264 191 186 200 164 155 164 159 151
324 329 328 324 316 312 302 296 292 275 267 263 263 261 276 276 262 252 245 252 248 244 249 262 239 237 241 255 241 230 269 204 240 352 1 305 340 253 210 183 175 166 165 160
325 329 331 324 320 315 305 298 295 270 265 264 276 285 271 277 265 252 243 249 253 253 256 241 245 262 208 228 246 220 239 209 277 254 275 283 296 319 309 191 173 171 170 166
324 324 327 327 321 321 312 301 290 265 247 287 293 292 292 276 247 246 253 245 245 240 232 221 237 225 221 247 239 248 210 214 217 270 282 301 308 328 288 269 192 188 180 163
327 325 323 326 326 324 331 327 22 338 252 281 292 295 296 304 268 254 250 244 237 217 198 209 213 227 209 231 230 221 223 229 239 237 254 276 293 300 282 158 153 181 179 160
326 326 321 313 313 304 295 274 291 308 304 271 299 295 281 312 293 226 238 241 227 223 225 226 235 246 222 238 247 228 233 255 261 253 269 266 288 272 206 191 154 149 155 159
324 322 317 309 299 292 295 315 295 250 267 247 267 270 290 246 254 277 230 249 211 215 214 233 226 212 222 256 239 248 250 253 255 258 250 248 249 248 238 265 164 157 155 157
330 327 315 306 263 280 316 304 288 275 238 258 238 251 277 264 283 268 260 248 216 190 210 227 181 198 227 247 251 241 251 244 249 269 269 246 239 242 246 225 180 173 163 163
336 341 331 298 261 301 309 291 193 202 217 228 251 233 266 286 285 269 272 211 226 222 231 167 212 246 246 248 246 245 256 261 250 252 267 261 247 233 219 192 200 188 169 166
350 332 280 290 309 318 283 266 222 219 256 229 242 236 241 260 191 230 219 230 233 254 249 182 241 266 247 256 245 244 240 239 251 237 251 273 324 202 175 185 184 169 167 172
313 302 296 306 322 294 16 265 260 236 273 265 281 297 292 258 248 185 238 214 215 248 163 233 244 261 327 355 295 259 248 238 237 241 243 249 279 251 168 165 163 160 163 170
338 313 282 286 277 330 237 285 225 253 270 278 295 318 288 291 241 11 347 254 238 308 237 239 232 323 347 335 322 321 304 247 234 235 243 255 271 189 166 157 154 156 160 164
312 303 289 170 262 239 221 234 270 252 261 284 293 267 256 259 289 203 229 241 247 248 239 244 266 336 325 319 311 317 329 209 209 212 203 215 152 145 152 157 157 168 161 156
271 256 244 239 244 277 295 291 315 298 309 296 291 263 245 263 258 242 275 259 253 248 299 300 301 300 298 294 308 322 213 156 153 167 159 151 154 157 157 159 158 155 152 157
243 233 260 268 283 282 300 303 308 326 317 322 271 275 292 280 282 262 229 308 308 296 293 300 301 294 284 311 90 106 127 136 136 143 145 147 145 141 138 139 142 143 150 152
243 249 255 271 280 275 289 312 296 302 311 284 298 293 275 302 267 318 357 329 298 307 310 315 357 75 79 90 100 98 112 121 126 130 133 130 128 129 130 127 125 131 129 128